Weather History for KNJK - April, 2013

Change the Weather History Date:

Thursday, April 11, 2013

  Actual Average Record
Temperature  
Mean Temperature 72 °F -  
Max Temperature 93 °F 79 °F 97 °F (2014)
Min Temperature 52 °F 55 °F 35 °F (2006)
Cooling Degree Days 8    
Growing Degree Days 22 (Base 50)    
Moisture  
Dew Point 32 °F    
Average Humidity 26    
Maximum Humidity 44    
Minimum Humidity 9    
Precipitation  
Precipitation 0.00 in - - ()
Sea Level Pressure  
Sea Level Pressure 29.82 in    
Wind  
Wind Speed 7 mph (South)    
Max Wind Speed 17 mph    
Max Gust Speed 23 mph    
Visibility 10 miles    
Events      
Averages and records for this station are not official NWS values.
T = Trace of Precipitation, MM = Missing Value Source: NWS Daily Summary

Daily Weather History Graph

Daily Weather History Graph

Search for Another Location

Airport or City:

Trip Planner

Search our weather history database for the weather conditions in past years. The results will help you decide how hot, cold, wet, or windy it might be!

Date:

Astronomy

Apr. 11, 2013 Rise Set
Actual Time 6:17 AM PDT 7:10 PM PDT
Civil Twilight 5:52 AM PDT 7:35 PM PDT
Nautical Twilight 5:22 AM PDT 8:05 PM PDT
Astronomical Twilight 4:52 AM PDT 8:35 PM PDT
Moon 6:56 AM PDT (4/11) 8:42 PM PDT (4/11)
Length of Visible Light 13h 43m
Length of Day
12h 52m
New Moon, 2% of the Moon is Illuminated
Apr 11
New Moon
Apr 18
First Quarter
Apr 25
Full
May 2
Last Quarter
May 9
New

Hourly Weather History & Observations

Time (PDT) Temp. Dew Point Humidity Pressure Visibility Wind Dir Wind Speed Gust Speed Precip Events Conditions
12:56 AM 61.0 °F 27.0 °F 27% 29.96 in 10.0 mi SW 6.9 mph - N/A   Clear
1:56 AM 57.0 °F 28.0 °F 33% 29.94 in 10.0 mi WSW 4.6 mph - N/A   Clear
2:56 AM 55.9 °F 26.1 °F 32% 29.93 in 10.0 mi SW 3.5 mph - N/A   Clear
3:56 AM 62.1 °F 25.0 °F 24% 29.92 in 10.0 mi SSW 3.5 mph - N/A   Clear
4:56 AM 55.9 °F 27.0 °F 33% 29.91 in 10.0 mi SSE 9.2 mph - N/A   Clear
5:56 AM 52.0 °F 30.0 °F 43% 29.90 in 10.0 mi Calm Calm - N/A   Clear
6:56 AM 54.0 °F 30.9 °F 41% 29.91 in 10.0 mi SW 3.5 mph - N/A   Clear
7:56 AM 61.0 °F 30.0 °F 31% 29.92 in 10.0 mi SSE 3.5 mph - N/A   Clear
8:56 AM 66.0 °F 42.1 °F 42% 29.91 in 10.0 mi SE 3.5 mph - N/A   Clear
9:56 AM 73.9 °F 39.9 °F 29% 29.89 in 10.0 mi SE 5.8 mph - N/A   Clear
10:56 AM 81.0 °F 36.0 °F 20% 29.86 in 10.0 mi ESE 9.2 mph - N/A   Partly Cloudy
11:56 AM 84.0 °F 32.0 °F 15% 29.84 in 10.0 mi ESE 10.4 mph - N/A   Partly Cloudy
12:56 PM 88.0 °F 27.0 °F 11% 29.82 in 10.0 mi ESE 9.2 mph - N/A   Partly Cloudy
1:56 PM 89.1 °F 27.0 °F 11% 29.78 in 10.0 mi ESE 4.6 mph - N/A   Partly Cloudy
2:56 PM 93.0 °F 26.1 °F 9% 29.74 in 10.0 mi SW 13.8 mph 23.0 mph N/A   Partly Cloudy
3:56 PM 91.9 °F 27.0 °F 10% 29.70 in 10.0 mi SSW 13.8 mph 20.7 mph N/A   Partly Cloudy
4:56 PM 91.0 °F 28.0 °F 10% 29.69 in 10.0 mi SW 9.2 mph - N/A   Partly Cloudy
5:56 PM 84.9 °F 39.0 °F 20% 29.69 in 10.0 mi SSE 17.3 mph - N/A   Partly Cloudy
6:56 PM 81.0 °F 36.0 °F 20% 29.69 in 10.0 mi South 12.7 mph - N/A   Partly Cloudy
7:56 PM 75.0 °F 36.0 °F 24% 29.70 in 10.0 mi Variable 6.9 mph - N/A   Partly Cloudy
8:56 PM 71.1 °F 37.0 °F 29% 29.72 in 10.0 mi South 5.8 mph - N/A   Partly Cloudy
9:56 PM 68.0 °F 39.0 °F 35% 29.74 in 10.0 mi South 5.8 mph - N/A   Clear
10:56 PM 66.0 °F 41.0 °F 40% 29.73 in 10.0 mi SSE 3.5 mph - N/A   Clear
11:56 PM 62.1 °F 39.9 °F 44% 29.73 in 10.0 mi NE 8.1 mph - N/A   Clear